Location: Grust
(42.8833°N, 0.0333°W)
Time: 20:15:15
(UTC+00:00)

Cosmos 883 Rocket - Pass Details

Date: 25 October 2020
Orbit: 950 x 995 km, 83.0° (Epoch: 23 November)

Event Time Altitude Azimuth Distance (km) Brightness Sun altitude
Rises 18:56:55 0° 172° (S) 3,645 7.4 -21.7°
Reaches altitude 10° 18:59:28 10° 168° (SSE) 2,696 6.7 -22.2°
Maximum altitude 19:05:27 56° 92° (E) 1,131 4.4 -23.3°
Drops below altitude 10° 19:11:26 10° 16° (NNE) 2,690 6.7 -24.4°
Sets 19:13:58 0° 12° (NNE) 3,637 7.4 -24.8°
